Regional Weather Roundup
Issued by NWS Lake Charles, LA

Home | Current Version | Previous Version | Text Only | Print | Product List | Glossary On
Versions: 1 2 3 4 5 6 7 8 9 10 11 12 13 14 15 16 17 18 19 20 21 22 23 24 25 26 27 28 29 30 31 32 33 34 35 36 37 38 39 40 41 42 43 44 45 46 47 48 49 50
399
ASUS44 KLCH 261610
RWRLCH
REGIONAL WEATHER ROUNDUP
NATIONAL WEATHER SERVICE LAKE CHARLES LA
1100 AM CDT WED APR 26 2017

Note: "fair" indicates few or no clouds below 12,000 feet with no
significant weather and/or obstructions to visibility.


ACROSS SOUTHEAST TEXAS

CITY           SKY/WX    TMP DP  RH WIND       PRES   REMARKS
BEAUMONT       CLOUDY    78  70  76 S15G25    29.60R
BEAUMONT CITY  CLOUDY    79  70  75 S12G18    29.61R
ORANGE         CLOUDY    77  71  81 S12G24    29.61S
JASPER         RAIN      76  72  86 SW7       29.65R
$$

ACROSS CENTRAL LOUISIANA

CITY           SKY/WX    TMP DP  RH WIND       PRES   REMARKS
LEESVILLE      CLOUDY    77  68  73 S14G29    29.60R
FULLERTON      CLOUDY    77  67  71 S7        29.58R
ALEXANDRIA INT CLOUDY    79  65  62 S16G25    29.60R
ESLER FIELD    PTSUNNY   80  67  64 S10G23    29.61R
DERIDDER       CLOUDY    78  67  68 SE14G20   29.61S
OAKDALE        CLOUDY    79  67  66 S14G21    29.61F
OPELOUSAS      PTSUNNY   81  66  60 S14G29    29.65R
$$

ACROSS SOUTHWEST AND SOUTH CENTRAL LOUISIANA

CITY           SKY/WX    TMP DP  RH WIND       PRES   REMARKS
SULPHUR        CLOUDY    80  70  70 SE24G30   29.61F
LAKE CHARLES   CLOUDY    79  69  71 S21G28    29.60F
CHENNAULT INT  PTSUNNY   79  68  69 S18G28    29.61F
CAMERON PHI      N/A     79  72  78 SE16G25   29.60F
DEQUINCY       CLOUDY    78  69  73 SE16G25   29.59F
JENNINGS       CLOUDY    79  67  67 S20       29.64R
LAFAYETTE      PTSUNNY   83  68  60 S15G22    29.66R
NEW IBERIA     LGT RAIN  80  66  62 S17G32    29.66S
ABBEVILLE      CLOUDY    79  72  78 S22G30    29.67R
PATTERSON      CLOUDY    80  68  66 SE20G28   29.69F
SALT POINT       N/A     79  70  74 SE9       29.68R
$$

SELECTED SITES ACROSS THE REGION

CITY           SKY/WX    TMP DP  RH WIND       PRES   REMARKS
HOUSTON BUSH   CLOUDY    80  70  71 S7        29.58S
HOUSTON HOBBY  LGT RAIN  79  70  74 SW13      29.59R
GALVESTON      CLOUDY    82  74  76 S21G26    29.57F
COLLEGE STAT   FAIR      81  70  69 S14G23    29.53S
CONROE         FAIR      81  71  71 S16G22    29.57F
HUNTSVILLE     FAIR      82  69  64 S15G23    29.55F
LUFKIN         FAIR      79  70  74 S14       29.55F
SHREVEPORT     CLOUDY    77  70  79 S14       29.56F
MONROE         CLOUDY    73  66  78 SE8       29.64R
NATCHEZ MS     PTSUNNY   78  66  66 S20       29.64F
BATON ROUGE    PTSUNNY   79  66  64 S22G30    29.68S
N.O. INTL ARPT PTSUNNY   77  67  71 SE22G28   29.73S
SLIDELL        CLOUDY    76  65  68 SE15      29.76R
$$

MARINE REPORTS

STATION/POSITION TIME  SKY/WX   TEMP    WIND        PRES    VSBY
                                AIR SEA DIR/SP/G
                 (UTC)          (F)     (DEG/KT/KT) (MB)    (MI)
BUOY 30 S HIGH I 1550            76 76  170/ 14/ 16 1001.4R
WVE H/P(F/S)=  6/ 8

SEA RIM ST PARK  1500            75     160/ 14/ 17 1002.3S
PORT ARTHUR      1548            76 75  160/  9/ 17 1002.3R
SABINE PASS N    1548            76 77  150/ 14/ 21 1003.1F
TEXAS POINT      NOT AVBL
CALCASIEU PASS   1548            76 75  170/ 17/ 23   N/A
LK CHARLES BEACH 1548            79 74              1002.6F
MARSH ISLAND     1500            77                   N/A
FRESH WATER LOCK 1548            76 73  140/ 16/ 23 1003.8F
AMERADA PASS     1548            77 70  140/ 11/ 18 1005.3R
$$




USA.gov is the U.S. government's official web portal to all federal, state and local government web resources and services.